ARIANE 5 R/B, 41593

Orbit data source: Space-Track

ARIANE 5 R/B, 41593 is space debris in HEO originally from a launch on Sat, 18 Jun 2016 UTC launched from the French Guiana (FRGUI). Debris objects in space refer to the collection of defunct objects orbiting the Earth. Examples of debris include non-operational satellites, rocket bodies, and fragments generated from explosions, collisions, or faulty payload assembly.

Loading next visibility...
Identifier
41593, 2016-039C
Orbit
HEO
Country
Flag of FRFR
Related business
Manufacturer
Airbus Safran
Mission
Spacecraft
Bus & Motor
ESC-A, Unknown motor
Mass
~5,000 kg wet, ~5,000 kg dry
Launch date (UTC)
2016-06-18 (10 years ago)
Launch vehicle
Unknown
Launch site
French Guiana (FRGUI)
Object type
Payload
Rocket body
Debris
Shape & HBR
Cyl + 1 Nozzle, 3.5 m
Radar Cross Section
41.627 m², Large (>1 m²)

Expand to show TLE details & history
Last TLE update: 18 hours ago

TLE from 18 hours ago
0 ARIANE 5 R/B
1 41593U 16039C   26125.54396610  .00000692  00000-0  39496-3 0  9992
2 41593   6.3138 316.2110 7131618 348.2109   1.3249  2.45442323 84621
Epoch: 2026-05-05T13:03Z
TLE epoch observation values (Epoch: 2026-05-05T13:03:18.671Z)
Latitude
0.0006°
Longitude
-103.10465°
Altitude
360.552 km
Speed
10.056 km/s
True Right ascension
21h 04m 33s
True Declination
0° 00' 02"
Sunlit
Object was in daylight at epoch
Visualization orbit readout
Latitude
Unknown
Longitude
Unknown
Altitude
Unknown
Speed
Unknown
Apparent Right ascension
Unknown
Apparent Declination
Unknown
Sunlit
N/A
Visualization observer readout
Local Sidereal Time
15:27:00
Azimuth
Unknown
Elevation
Unknown
Doppler factor
Unknown
Orbital elements
Apogee altitude
33,402.221 km
Perigee altitude
282.37 km
Semi-major axis
23,220.432 km
Eccentricity
0.71316
Inclination
6.3138°
RAAN
316.211°
Arg. of periapsis
348.2109°
True anomaly
11.2281°
Mean anomaly
1.3249°
Eccentric anomaly
4.60664°
Mean motion
0.61339 °/min
Orbital period
586.9 mins
BSTAR
0.00039496
Loading maneuver chart data...
Computing Atmospheric mass density...
Loading historical data...
Loading historical data...
Loading historical data...
Loading historical data...
Loading historical data...
Loading historical data...
Loading historical data...
Other satellites on launch #39 in the year 2016 (2016-06-18 UTC)

Documentation

Showing up to 5 results
|